This demonstration page uses our WeatherBlox Daily Observations layout. Learn more.

Left ArrowRight Arrow

34.16533, -84.80231

Hourly Observations for October 21, 2020

Temp ( °F °C ) Dew Point ( °F °C ) Humidity (%) Winds ( mph kmh ) Pressure ( in mb ) Visibility ( mi km ) Precip ( " mm )
12:53 am 00:53 Clear 64 17.8 59 15 84 84 E 3 6 30.15 1021 10 16 0.00 0.00
1:53 am 01:53 Clear 62 16.7 58 14.4 86 86 E 3 6 30.14 1021 10 16 0.00 0.00
4:53 am 04:53 Clear 60 15.6 57 13.9 90 90 Calm 30.19 1022 9 14 0.00 0.00
5:24 am 05:24 Mostly Cloudy 61 16.1 58 14.4 90 90 Calm 30.19 1022 10 16 0.00 0.00
5:53 am 05:53 Cloudy 63 17.2 59 15 87 87 Calm 30.20 1023 10 16 0.00 0.00
7:53 am 07:53 Cloudy 65 18.3 59 15 81 81 N 3 6 30.22 1023 10 16 0.00 0.00
8:53 am 08:53 Cloudy 65 18.3 61 16.1 87 87 Calm 30.24 1024 10 16 0.00 0.00
9:53 am 09:53 Cloudy 69 20.6 61 16.1 76 76 Calm 30.25 1024 10 16 0.00 0.00
10:53 am 10:53 Mostly Cloudy 73 22.8 62 16.7 69 69 NNE 5 7 30.25 1024 10 16 0.00 0.00
11:24 am 11:24 Mostly Cloudy 73 22.8 62 16.7 69 69 Calm 30.25 1025 10 16 0.00 0.00
11:53 am 11:53 Sunny 75 23.9 63 17.2 66 66 VRB 3 6 30.24 1024 10 16 0.00 0.00
12:28 pm 12:28 Mostly Cloudy 76 24.4 64 17.8 67 67 ESE 5 7 30.23 1024 10 16 0.00 0.00
12:53 pm 12:53 Mostly Cloudy 79 26.1 65 18.3 62 62 NNE 3 6 30.21 1023 10 16 0.00 0.00
1:35 pm 13:35 Partly Cloudy 78 25.6 65 18.3 64 64 VRB 3 6 30.20 1023 10 16 0.00 0.00
1:53 pm 13:53 Mostly Sunny 81 27.2 65 18.3 58 58 NE 8 13 30.18 1022 10 16 0.00 0.00
2:53 pm 14:53 Mostly Cloudy 81 27.2 65 18.3 58 58 SE 5 7 30.15 1021 10 16 0.00 0.00
3:53 pm 15:53 Sunny 82 27.8 65 18.3 56 56 VRB 6 9 30.13 1020 10 16 0.00 0.00
4:53 pm 16:53 Partly Cloudy 81 27.2 63 17.2 54 54 SE 5 7 30.13 1020 10 16 0.00 0.00
5:53 pm 17:53 Sunny 81 27.2 63 17.2 54 54 E 3 6 30.14 1021 10 16 0.00 0.00
6:53 pm 18:53 Sunny 71 21.7 66 18.9 84 84 Calm 30.14 1021 10 16 0.00 0.00
7:53 pm 19:53 Clear 68 20 64 17.8 87 87 Calm 30.15 1021 10 16 0.00 0.00
8:53 pm 20:53 Clear 66 18.9 63 17.2 90 90 Calm 30.16 1021 10 16 0.00 0.00
9:53 pm 21:53 Clear 65 18.3 62 16.7 90 90 Calm 30.16 1022 10 16 0.00 0.00
10:53 pm 22:53 Clear 65 18.3 61 16.1 87 87 Calm 30.16 1022 10 16 0.00 0.00
11:53 pm 23:53 Clear 64 17.8 61 16.1 90 90 Calm 30.16 1021 10 16 0.00 0.00

Powered by AerisWeather